This is the latest recevied weather packets stored in our database for station/object WY1B. If no packets are shown the sender has not sent any weather packets the latest 10 day(s).
| Time | Temp. | Humidity | Pressure | Rain* | Wind** | Luminosity | Snow |
|---|---|---|---|---|---|---|---|
| 1787907444 | 33.33° C | 33% | 1003.9 hPa | 0 mm | - | 0 W/m² | - |
| 1787907139 | 33.33° C | 34% | 1004 hPa | 0 mm | - | 0 W/m² | - |
| 1787906835 | 33.33° C | 31% | 1003.8 hPa | 0 mm | - | 0 W/m² | - |
| 1787906532 | 33.33° C | 31% | 1003.9 hPa | 0 mm | - | 0 W/m² | - |
| 1787906232 | 33.33° C | 31% | 1003.8 hPa | 0 mm | - | 0 W/m² | - |
| 1787905932 | 33.33° C | 32% | 1003.9 hPa | 0 mm | - | 0 W/m² | - |
| 1787905627 | 33.33° C | 32% | 1003.8 hPa | 0 mm | - | 0 W/m² | - |
| 1787905324 | 33.33° C | 32% | 1004.1 hPa | 0 mm | - | 0 W/m² | - |
| 1787905022 | 33.33° C | 33% | 1004.2 hPa | 0 mm | - | 0 W/m² | - |
| 1787904719 | 33.33° C | 32% | 1004.3 hPa | 0 mm | - | 0 W/m² | - |
| 1787904414 | 33.33° C | 31% | 1004.1 hPa | 0 mm | - | 0 W/m² | - |
| 1787904109 | 33.89° C | 32% | 1004 hPa | 0 mm | - | 0 W/m² | - |
| 1787903804 | 33.89° C | 32% | 1004 hPa | 0 mm | - | 0 W/m² | - |
| 1787903501 | 33.33° C | 31% | 1004.3 hPa | 0 mm | - | 0 W/m² | - |
| 1787903196 | 33.33° C | 32% | 1004 hPa | 0 mm | - | 0 W/m² | - |
| 1787902892 | 33.33° C | 34% | 1004 hPa | 0 mm | - | 0 W/m² | - |
| 1787902588 | 33.89° C | 38% | 1003.9 hPa | 0 mm | - | 0 W/m² | - |
| 1787902289 | 34.44° C | 35% | 1004 hPa | 0 mm | - | 0 W/m² | - |
| 1787901985 | 34.44° C | 34% | 1004 hPa | 0 mm | - | 0 W/m² | - |
| 1787901679 | 34.44° C | 29% | 1003.9 hPa | 0 mm | - | 0 W/m² | - |
| 1787901380 | 33.89° C | 30% | 1003.7 hPa | 0 mm | - | 0 W/m² | - |
| 1787901076 | 33.89° C | 31% | 1003.7 hPa | 0 mm | - | 0 W/m² | - |
| 1787900776 | 33.89° C | 31% | 1003.8 hPa | 0 mm | - | 0 W/m² | - |
| 1787900471 | 33.89° C | 31% | 1003.8 hPa | 0 mm | - | 0 W/m² | - |
| 1787900170 | 33.89° C | 31% | 1003.8 hPa | 0 mm | - | 0 W/m² | - |
* Rain latest hour (hover to see other rain measurements)
** Current wind speed in m/s (hover to see current wind gust speed)